Weather in Chuvasheva Gora

Russia / Novgorod Oblast     58°20′39″N   34°56′55″E
temp.,
°C
wind,
m/s
gust,
m/s
humid.,
%
clouds,
%
prec.,
mm/h
press.,
hPa
HPBL,
m
28 september, tue
tue2800:00+8ne3890100 0.0 1029537
03:00+8ne379264 0.0 1030514
06:00+7ne3789100 0.0 1031467
09:00+7ene3782100 0.1 1032583
12:00+10e346297 0.0 10331189
15:00+11e235462 0.0 10331258
18:00+8ene22745 0.0 103425
21:00+5e228481 0.0 103521
29 september, wed
wed2900:00+4ese1186100 0.0 103610
03:00+3nnw008899 0.0 103710
06:00+3nnw119165 0.0 103710
09:00+6nnw117697 0.0 1037128
12:00+10nnw1159100 0.0 1037595
15:00+12nnw125499 0.0 1036876
18:00+8nnw11745 0.0 103510
21:00+6n11837 0.0 103610
30 september, thu
thu3000:00+5nw11875 0.0 103610
03:00+4wnw119074 0.0 103610
06:00+3wnw119229 0.0 103610
09:00+7w017734 0.0 1036125
12:00+12sw11598 0.0 1036580
15:00+13sw12565 0.0 1035870
18:00+9ssw11755 0.0 103410
21:00+7s22835 0.0 103412
1 october, fri
fri100:00+6ssw228922 0.0 103532
03:00+5ssw22945 0.0 103435
06:00+4ssw23955 0.0 103444
09:00+7ssw258021 0.0 1034207
12:00+12ssw355933 0.0 1033713
15:00+13sw34518 0.0 10321032
18:00+9ssw227252 0.0 103115
21:00+6ssw228134 0.0 103241
2 october, sat
sat200:00+5ssw248622 0.0 103270
03:00+4ssw249012 0.0 103288
06:00+4ssw269349 0.0 1031111
09:00+7ssw377877 0.0 1031234
12:00+12ssw365771 0.0 1030672
15:00+13ssw46515 0.0 10291050
18:00+9sse38733 0.0 1028153
21:00+7s311805 0.0 1028306